Location: Unspecified
(44.4377°N, 88.0525°W)
Time: 00:23:47
(UTC-05:00)

Resurs 1-4 Rocket - Visible Passes

Search period start: 25 May 2015 00:00
Search period end: 04 June 2015 00:00
Orbit: 800 x 814 km, 98.4° (Epoch: 24 May)

Date Brightness Start Highest point End Pass type
(mag) Time Alt. Az. Time Alt. Az. Time Alt. Az.
25 May 2.3 04:25:15 10° NNE 04:30:35 76° ESE 04:35:55 10° S visible
26 May 3.1 04:00:55 10° NNE 04:06:01 46° E 04:11:09 10° S visible
27 May 3.9 03:36:49 10° NE 03:41:21 29° E 03:45:58 10° SSE visible
28 May 4.5 03:13:08 10° NE 03:16:34 18° E 03:20:11 10° SE visible
29 May 4.9 02:51:13 10° E 02:51:39 10° E 02:52:29 10° E visible
29 May 2.3 04:27:10 10° NNE 04:32:32 80° ESE 04:37:52 10° S visible
30 May 3.0 04:02:49 10° NNE 04:07:59 49° E 04:13:08 10° S visible
31 May 3.8 03:38:42 10° NE 03:43:19 30° E 03:47:59 10° SSE visible
01 Jun 4.5 03:14:58 10° NE 03:18:33 19° E 03:22:18 10° SE visible
02 Jun 4.8 02:52:29 10° ENE 02:53:38 11° E 02:55:09 10° E visible
02 Jun 2.3 04:29:06 10° NNE 04:34:28 83° ESE 04:39:48 10° SSW visible
03 Jun 2.9 04:04:44 10° NNE 04:09:55 51° E 04:15:07 10° S visible
